Retour au catalogue

TDRS 11

ActifCommunicationsGEO
NORAD 39070·PAYLOAD·🇺🇸 United States

Lancé Jan 31, 2013 depuis Cape Canaveral Space Force Station

Loading…

TLE

FraisSource: Space-Track

Époque: Sep 14, 2026, 13:18 UTC

1 39070U 13004A   26257.55484890  .00000072  00000-0  00000-0 0  9991
2 39070   3.6567  32.5607 0003572  43.8418 302.5318  1.00268225 47588

Suivez TDRS 11 en temps réel avec AllMySat

Download on the App Store